Time,TemperatureF,DewpointF,PressureIn,WindDirection,WindDirectionDegrees,WindSpeedMPH,WindSpeedGustMPH,Humidity,HourlyPrecipIn,Conditions,Clouds,dailyrainin,SoftwareType,DateUTC
2013-09-16 00:11:00,39.2,38.9,30.05,ESE,112,2.2,-999.0,99,-99.99,,,0.00,Acu-Link.com,2013-09-16 06:11:00,
2013-09-16 00:26:00,40.5,40.2,30.05,ESE,112,1.7,-999.0,99,-99.99,,,0.00,Acu-Link.com,2013-09-16 06:26:00,
2013-09-16 00:41:00,40.6,40.3,30.05,ESE,112,2.7,-999.0,99,-99.99,,,0.00,Acu-Link.com,2013-09-16 06:41:00,
2013-09-16 00:56:00,40.3,40.0,30.05,ESE,112,1.7,-999.0,99,-99.99,,,0.00,Acu-Link.com,2013-09-16 06:56:00,
2013-09-16 01:11:00,40.3,40.0,30.05,ESE,112,1.7,-999.0,99,-99.99,,,0.00,Acu-Link.com,2013-09-16 07:11:00,
2013-09-16 01:26:00,40.1,39.8,30.05,ESE,112,2.2,-999.0,99,-99.99,,,0.00,Acu-Link.com,2013-09-16 07:26:00,
2013-09-16 01:41:00,39.9,39.6,30.04,ESE,112,2.2,-999.0,99,-99.99,,,0.00,Acu-Link.com,2013-09-16 07:41:00,
2013-09-16 01:56:00,40.1,39.8,30.05,ESE,112,0.0,-999.0,99,-99.99,,,0.00,Acu-Link.com,2013-09-16 07:56:00,
2013-09-16 02:12:00,40.3,40.0,30.05,ESE,112,1.1,-999.0,99,-99.99,,,0.00,Acu-Link.com,2013-09-16 08:12:00,
2013-09-16 02:27:00,40.3,40.0,30.05,ESE,112,1.7,-999.0,99,-99.99,,,0.00,Acu-Link.com,2013-09-16 08:27:00,
2013-09-16 02:43:00,40.1,39.8,30.04,ESE,112,3.2,-999.0,99,-99.99,,,0.00,Acu-Link.com,2013-09-16 08:43:00,
2013-09-16 02:58:00,40.5,40.2,30.04,ESE,112,2.7,-999.0,99,-99.99,,,0.00,Acu-Link.com,2013-09-16 08:58:00,
2013-09-16 03:13:00,40.5,40.2,30.04,ESE,112,2.7,-999.0,99,-99.99,,,0.00,Acu-Link.com,2013-09-16 09:13:00,
2013-09-16 03:28:00,40.5,40.2,30.04,ESE,112,3.7,-999.0,99,-99.99,,,0.00,Acu-Link.com,2013-09-16 09:28:00,
2013-09-16 03:43:00,40.1,39.8,30.05,ESE,112,2.2,-999.0,99,-99.99,,,0.00,Acu-Link.com,2013-09-16 09:43:00,
2013-09-16 03:59:00,39.6,39.3,30.04,ESE,112,1.7,-999.0,99,-99.99,,,0.00,Acu-Link.com,2013-09-16 09:59:00,
2013-09-16 04:14:00,39.7,39.4,30.04,ESE,112,2.2,-999.0,99,-99.99,,,0.00,Acu-Link.com,2013-09-16 10:14:00,
2013-09-16 04:29:00,39.9,39.6,30.04,ESE,112,1.7,-999.0,99,-99.99,,,0.00,Acu-Link.com,2013-09-16 10:29:00,
2013-09-16 04:44:00,39.7,39.4,30.04,ESE,112,2.7,-999.0,99,-99.99,,,0.00,Acu-Link.com,2013-09-16 10:44:00,
2013-09-16 04:59:00,39.6,39.3,30.04,ESE,112,0.0,-999.0,99,-99.99,,,0.00,Acu-Link.com,2013-09-16 10:59:00,
2013-09-16 05:14:00,39.6,39.3,30.04,ESE,112,0.0,-999.0,99,-99.99,,,0.00,Acu-Link.com,2013-09-16 11:14:00,
2013-09-16 05:29:00,39.4,39.1,30.04,ESE,112,1.7,-999.0,99,-99.99,,,0.00,Acu-Link.com,2013-09-16 11:29:00,
2013-09-16 05:44:00,39.2,38.9,30.04,ESE,112,2.2,-999.0,99,-99.99,,,0.01,Acu-Link.com,2013-09-16 11:44:00,
2013-09-16 05:59:00,39.0,38.7,30.05,ESE,112,1.7,-999.0,99,-99.99,,,0.01,Acu-Link.com,2013-09-16 11:59:00,
2013-09-16 06:15:00,39.0,38.7,30.05,ESE,112,0.0,-999.0,99,-99.99,,,0.01,Acu-Link.com,2013-09-16 12:15:00,
2013-09-16 06:30:00,39.2,38.9,30.05,ESE,112,2.2,-999.0,99,-99.99,,,0.01,Acu-Link.com,2013-09-16 12:30:00,
2013-09-16 06:45:00,39.4,39.1,30.05,ESE,112,2.7,-999.0,99,-99.99,,,0.01,Acu-Link.com,2013-09-16 12:45:00,
2013-09-16 07:00:00,39.6,39.3,30.05,ESE,112,2.7,-999.0,99,-99.99,,,0.01,Acu-Link.com,2013-09-16 13:00:00,
2013-09-16 07:15:00,39.7,39.4,30.06,ESE,112,2.2,-999.0,99,-99.99,,,0.01,Acu-Link.com,2013-09-16 13:15:00,
2013-09-16 07:30:00,40.8,40.5,30.06,ESE,112,3.2,-999.0,99,-99.99,,,0.01,Acu-Link.com,2013-09-16 13:30:00,
2013-09-16 07:45:00,41.5,41.2,30.06,ESE,112,2.7,-999.0,99,-99.99,,,0.01,Acu-Link.com,2013-09-16 13:45:00,
2013-09-16 08:00:00,42.6,42.3,30.07,ESE,112,1.7,-999.0,99,-99.99,,,0.01,Acu-Link.com,2013-09-16 14:00:00,
2013-09-16 08:15:00,42.8,42.5,30.07,ESE,112,1.7,-999.0,99,-99.99,,,0.01,Acu-Link.com,2013-09-16 14:15:00,
2013-09-16 08:31:00,43.9,43.6,30.07,ESE,112,1.7,-999.0,99,-99.99,,,0.01,Acu-Link.com,2013-09-16 14:31:00,
2013-09-16 08:46:00,45.9,45.4,30.07,ESE,112,2.7,-999.0,98,-99.99,,,0.01,Acu-Link.com,2013-09-16 14:46:00,
2013-09-16 09:01:00,45.7,45.2,30.07,ESE,112,3.2,-999.0,98,-99.99,,,0.01,Acu-Link.com,2013-09-16 15:01:00,
2013-09-16 09:16:00,47.5,47.0,30.07,ESE,112,2.7,-999.0,98,-99.99,,,0.01,Acu-Link.com,2013-09-16 15:16:00,
2013-09-16 09:32:00,47.5,46.1,30.07,ESE,112,2.7,-999.0,95,-99.99,,,0.01,Acu-Link.com,2013-09-16 15:32:00,
2013-09-16 09:47:00,49.8,46.7,30.07,ESE,112,3.2,-999.0,89,-99.99,,,0.01,Acu-Link.com,2013-09-16 15:47:00,
2013-09-16 10:02:00,48.4,47.0,30.07,ESE,112,1.7,-999.0,95,-99.99,,,0.01,Acu-Link.com,2013-09-16 16:02:00,
2013-09-16 10:17:00,48.4,46.8,30.08,ESE,112,2.2,-999.0,94,-99.99,,,0.01,Acu-Link.com,2013-09-16 16:17:00,
2013-09-16 10:32:00,49.6,47.9,30.07,ESE,112,2.2,-999.0,94,-99.99,,,0.01,Acu-Link.com,2013-09-16 16:32:00,
2013-09-16 10:47:00,49.5,47.3,30.07,ESE,112,3.7,-999.0,92,-99.99,,,0.01,Acu-Link.com,2013-09-16 16:47:00,
2013-09-16 11:03:00,49.1,47.7,30.07,ESE,112,4.2,-999.0,95,-99.99,,,0.01,Acu-Link.com,2013-09-16 17:03:00,
2013-09-16 11:18:00,50.5,47.4,30.07,ESE,112,4.7,-999.0,89,-99.99,,,0.01,Acu-Link.com,2013-09-16 17:18:00,
2013-09-16 11:33:00,52.2,47.5,30.07,WSW,247,4.7,-999.0,84,-99.99,,,0.01,Acu-Link.com,2013-09-16 17:33:00,
2013-09-16 11:48:00,52.5,47.5,30.07,West,270,4.2,-999.0,83,-99.99,,,0.01,Acu-Link.com,2013-09-16 17:48:00,
2013-09-16 12:03:00,55.0,47.2,30.06,South,180,5.3,-999.0,75,-99.99,,,0.01,Acu-Link.com,2013-09-16 18:03:00,
2013-09-16 12:18:00,54.0,48.0,30.06,WSW,247,2.7,-999.0,80,-99.99,,,0.01,Acu-Link.com,2013-09-16 18:18:00,
2013-09-16 12:33:00,52.7,46.4,30.06,WSW,247,3.7,-999.0,79,-99.99,,,0.01,Acu-Link.com,2013-09-16 18:33:00,
2013-09-16 12:49:00,54.0,48.6,30.05,WSW,247,2.7,-999.0,82,-99.99,,,0.01,Acu-Link.com,2013-09-16 18:49:00,
2013-09-16 13:04:00,57.6,47.5,30.05,West,270,4.2,-999.0,69,-99.99,,,0.01,Acu-Link.com,2013-09-16 19:04:00,
2013-09-16 13:20:00,57.0,47.7,30.05,SW,225,7.3,-999.0,71,-99.99,,,0.01,Acu-Link.com,2013-09-16 19:20:00,
2013-09-16 13:35:00,57.0,45.8,30.04,WSW,247,6.3,-999.0,66,-99.99,,,0.01,Acu-Link.com,2013-09-16 19:35:00,
2013-09-16 13:51:00,57.0,46.9,30.04,WNW,292,3.2,-999.0,69,-99.99,,,0.01,Acu-Link.com,2013-09-16 19:51:00,
2013-09-16 14:06:00,57.0,45.4,30.03,SSE,157,6.8,-999.0,65,-99.99,,,0.01,Acu-Link.com,2013-09-16 20:06:00,
2013-09-16 14:21:00,59.9,46.8,30.02,East,90,6.8,-999.0,62,-99.99,,,0.01,Acu-Link.com,2013-09-16 20:21:00,
2013-09-16 14:37:00,56.5,44.5,30.02,NW,315,3.2,-999.0,64,-99.99,,,0.01,Acu-Link.com,2013-09-16 20:37:00,
2013-09-16 14:52:00,59.4,45.1,30.02,WSW,247,5.3,-999.0,59,-99.99,,,0.01,Acu-Link.com,2013-09-16 20:52:00,
2013-09-16 15:07:00,57.9,45.4,30.02,East,90,2.7,-999.0,63,-99.99,,,0.01,Acu-Link.com,2013-09-16 21:07:00,
2013-09-16 15:22:00,59.9,46.4,30.02,SW,225,3.2,-999.0,61,-99.99,,,0.01,Acu-Link.com,2013-09-16 21:22:00,
2013-09-16 15:37:00,58.5,45.1,30.01,ESE,112,2.7,-999.0,61,-99.99,,,0.01,Acu-Link.com,2013-09-16 21:37:00,
2013-09-16 15:52:00,61.7,44.4,30.00,WNW,292,4.7,-999.0,53,-99.99,,,0.01,Acu-Link.com,2013-09-16 21:52:00,
2013-09-16 16:07:00,61.5,42.2,30.01,WNW,292,6.3,-999.0,49,-99.99,,,0.01,Acu-Link.com,2013-09-16 22:07:00,
2013-09-16 16:22:00,60.1,42.4,30.01,East,90,2.2,-999.0,52,-99.99,,,0.01,Acu-Link.com,2013-09-16 22:22:00,
2013-09-16 16:37:00,63.9,43.3,30.00,West,270,3.2,-999.0,47,-99.99,,,0.01,Acu-Link.com,2013-09-16 22:37:00,
2013-09-16 16:53:00,62.2,41.2,30.00,ESE,112,4.2,-999.0,46,-99.99,,,0.01,Acu-Link.com,2013-09-16 22:53:00,
2013-09-16 17:08:00,60.4,41.7,30.01,WNW,292,3.2,-999.0,50,-99.99,,,0.01,Acu-Link.com,2013-09-16 23:08:00,
2013-09-16 17:23:00,58.1,40.6,30.01,NNW,337,3.2,-999.0,52,-99.99,,,0.01,Acu-Link.com,2013-09-16 23:23:00,
2013-09-16 17:38:00,57.7,39.7,30.01,ENE,67,3.7,-999.0,51,-99.99,,,0.01,Acu-Link.com,2013-09-16 23:38:00,
2013-09-16 17:53:00,57.0,39.1,30.01,West,270,5.3,-999.0,51,-99.99,,,0.01,Acu-Link.com,2013-09-16 23:53:00,
2013-09-16 18:08:00,55.4,38.6,30.01,West,270,2.7,-999.0,53,-99.99,,,0.01,Acu-Link.com,2013-09-17 00:08:00,
2013-09-16 18:24:00,54.0,38.7,30.01,East,90,3.7,-999.0,56,-99.99,,,0.01,Acu-Link.com,2013-09-17 00:24:00,
2013-09-16 18:39:00,53.2,38.8,30.01,East,90,0.0,-999.0,58,-99.99,,,0.01,Acu-Link.com,2013-09-17 00:39:00,
2013-09-16 18:54:00,51.8,38.4,30.01,West,270,2.2,-999.0,60,-99.99,,,0.01,Acu-Link.com,2013-09-17 00:54:00,
2013-09-16 19:09:00,51.1,38.9,30.00,West,270,0.0,-999.0,63,-99.99,,,0.01,Acu-Link.com,2013-09-17 01:09:00,
2013-09-16 19:24:00,49.6,38.7,30.00,West,270,1.7,-999.0,66,-99.99,,,0.01,Acu-Link.com,2013-09-17 01:24:00,
2013-09-16 19:39:00,48.9,38.8,30.00,West,270,1.1,-999.0,68,-99.99,,,0.01,Acu-Link.com,2013-09-17 01:39:00,
2013-09-16 19:54:00,48.2,38.9,30.01,West,270,0.0,-999.0,70,-99.99,,,0.01,Acu-Link.com,2013-09-17 01:54:00,
2013-09-16 20:09:00,47.5,38.9,30.02,West,270,1.1,-999.0,72,-99.99,,,0.01,Acu-Link.com,2013-09-17 02:09:00,
2013-09-16 20:24:00,46.9,38.4,30.01,West,270,1.7,-999.0,72,-99.99,,,0.01,Acu-Link.com,2013-09-17 02:24:00,
2013-09-16 20:39:00,46.8,38.6,30.02,West,270,1.7,-999.0,73,-99.99,,,0.01,Acu-Link.com,2013-09-17 02:39:00,
2013-09-16 20:55:00,46.6,38.4,30.02,West,270,1.7,-999.0,73,-99.99,,,0.01,Acu-Link.com,2013-09-17 02:55:00,
2013-09-16 21:10:00,46.4,38.2,30.02,West,270,2.2,-999.0,73,-99.99,,,0.01,Acu-Link.com,2013-09-17 03:10:00,
2013-09-16 21:25:00,46.6,38.4,30.03,West,270,0.0,-999.0,73,-99.99,,,0.01,Acu-Link.com,2013-09-17 03:25:00,
2013-09-16 21:40:00,46.6,38.8,30.03,West,270,0.0,-999.0,74,-99.99,,,0.01,Acu-Link.com,2013-09-17 03:40:00,
2013-09-16 21:55:00,46.4,39.3,30.03,West,270,1.7,-999.0,76,-99.99,,,0.01,Acu-Link.com,2013-09-17 03:55:00,
2013-09-16 22:10:00,46.0,39.2,30.03,West,270,0.0,-999.0,77,-99.99,,,0.01,Acu-Link.com,2013-09-17 04:10:00,
2013-09-16 22:26:00,45.5,39.0,30.03,West,270,0.0,-999.0,78,-99.99,,,0.01,Acu-Link.com,2013-09-17 04:26:00,
2013-09-16 22:41:00,45.1,38.7,30.03,West,270,0.0,-999.0,78,-99.99,,,0.01,Acu-Link.com,2013-09-17 04:41:00,
2013-09-16 22:56:00,45.0,39.2,30.04,West,270,0.0,-999.0,80,-99.99,,,0.01,Acu-Link.com,2013-09-17 04:56:00,
2013-09-16 23:11:00,44.8,39.3,30.04,West,270,0.0,-999.0,81,-99.99,,,0.01,Acu-Link.com,2013-09-17 05:11:00,
2013-09-16 23:26:00,44.8,39.3,30.04,West,270,0.0,-999.0,81,-99.99,,,0.01,Acu-Link.com,2013-09-17 05:26:00,
2013-09-16 23:41:00,45.1,39.3,30.04,West,270,0.0,-999.0,80,-99.99,,,0.01,Acu-Link.com,2013-09-17 05:41:00,
2013-09-16 23:56:00,45.7,39.2,30.04,West,270,0.0,-999.0,78,-99.99,,,0.01,Acu-Link.com,2013-09-17 05:56:00,